Weather History for KEUG - November, 2013

Change the Weather History Date:

Wednesday, November 6, 2013

  Actual Average Record
Temperature  
Mean Temperature 59 °F 47 °F  
Max Temperature 64 °F 55 °F 70 °F (2006)
Min Temperature 53 °F 39 °F 22 °F (1971)
Degree Days  
Heating Degree Days 6 18  
Month to date heating degree days 87 104  
Since 1 July heating degree days 648 674  
Cooling Degree Days 0 0  
Month to date cooling degree days 0 0  
Year to date cooling degree days 411 239  
Growing Degree Days 8 (Base 50)    
Moisture  
Dew Point 54 °F    
Average Humidity 89    
Maximum Humidity 100    
Minimum Humidity 78    
Precipitation  
Precipitation 0.00 in 0.22 in 1.20 in (1916)
Month to date precipitation 0.47 1.20  
Year to date precipitation 18.05 31.75  
Snow  
Snow 0.00 in - - ()
Month to date snowfall 0.0  
Since 1 July snowfall 0.0  
Since 1 September snowfall 0.0  
Snow Depth 0.00 in    
Sea Level Pressure  
Sea Level Pressure 30.21 in    
Wind  
Wind Speed 4 mph (SSE)    
Max Wind Speed 9 mph    
Max Gust Speed 10 mph    
Visibility 7 miles    
Events Fog    
T = Trace of Precipitation, MM = Missing Value Source: NWS Daily Summary

Daily Weather History Graph

Daily Weather History Graph

Search for Another Location

Airport or City:

Trip Planner

Search our weather history database for the weather conditions in past years. The results will help you decide how hot, cold, wet, or windy it might be!

Date:

Astronomy

Nov. 06, 2013 Rise Set
Actual Time 6:56 AM PST 4:55 PM PST
Civil Twilight 6:26 AM PST 5:26 PM PST
Nautical Twilight 5:51 AM PST 6:00 PM PST
Astronomical Twilight 5:17 AM PST 6:34 PM PST
Moon 10:19 AM PST (11/6) 8:03 PM PST (11/6)
Length of Visible Light 11h 00m
Length of Day
9h 59m
Waxing Crescent, 14% of the Moon is Illuminated
Nov 6
Waxing Crescent
Nov 9
First Quarter
Nov 17
Full
Nov 25
Last Quarter
Dec 2
New

Hourly Weather History & Observations

Time (PST) Temp. Dew Point Humidity Pressure Visibility Wind Dir Wind Speed Gust Speed Precip Events Conditions
12:21 AM 53.6 °F 51.8 °F 94% 30.27 in 10.0 mi SSE 4.6 mph - N/A   Overcast
12:54 AM 53.1 °F 52.0 °F 96% 30.27 in 10.0 mi SE 5.8 mph - N/A   Overcast
1:54 AM 53.1 °F 52.0 °F 96% 30.27 in 10.0 mi SSE 4.6 mph - N/A   Overcast
2:54 AM 54.0 °F 52.0 °F 93% 30.27 in 10.0 mi South 6.9 mph - N/A   Overcast
3:54 AM 54.0 °F 52.0 °F 93% 30.26 in 10.0 mi SSE 5.8 mph - N/A   Overcast
4:54 AM 53.1 °F 52.0 °F 96% 30.27 in 10.0 mi SE 4.6 mph - N/A   Overcast
5:14 AM 53.6 °F 51.8 °F 94% 30.27 in 10.0 mi SE 3.5 mph - N/A   Overcast
5:54 AM 53.1 °F 52.0 °F 96% 30.27 in 6.0 mi SE 5.8 mph - N/A   Overcast
6:54 AM 53.1 °F 52.0 °F 96% 30.27 in 3.0 mi SE 4.6 mph - N/A   Overcast
7:54 AM 54.0 °F 53.1 °F 97% 30.29 in 7.0 mi South 4.6 mph - N/A   Overcast
8:38 AM 55.4 °F 53.6 °F 94% 30.29 in 9.0 mi SSE 4.6 mph - N/A   Overcast
8:54 AM 55.9 °F 54.0 °F 93% 30.29 in 10.0 mi SSE 5.8 mph - N/A   Overcast
9:38 AM 57.2 °F 53.6 °F 88% 30.28 in 10.0 mi SSE 4.6 mph - N/A   Overcast
9:54 AM 57.0 °F 54.0 °F 89% 30.28 in 10.0 mi South 4.6 mph - N/A   Overcast
10:44 AM 59.0 °F 53.6 °F 82% 30.28 in 10.0 mi ESE 3.5 mph - N/A   Overcast
10:54 AM 59.0 °F 54.0 °F 83% 30.28 in 10.0 mi SE 4.6 mph - N/A   Overcast
11:54 AM 62.1 °F 55.0 °F 78% 30.26 in 10.0 mi Calm Calm - N/A   Overcast
12:12 PM 60.8 °F 55.4 °F 82% 30.25 in 10.0 mi Calm Calm - N/A   Mostly Cloudy
12:54 PM 63.0 °F 55.0 °F 75% 30.24 in 10.0 mi Calm Calm - N/A   Overcast
1:54 PM 63.0 °F 55.0 °F 75% 30.22 in 10.0 mi Calm Calm - N/A   Overcast
2:18 PM 62.6 °F 55.4 °F 77% 30.21 in 10.0 mi Calm Calm - N/A   Overcast
2:54 PM 62.1 °F 55.0 °F 78% 30.21 in 10.0 mi Calm Calm - N/A   Overcast
3:54 PM 62.1 °F 55.9 °F 80% 30.19 in 10.0 mi Calm Calm - N/A   Overcast
4:54 PM 60.1 °F 55.0 °F 83% 30.17 in 10.0 mi Calm Calm - N/A   Overcast
5:54 PM 57.9 °F 55.0 °F 90% 30.17 in 10.0 mi Calm Calm - N/A   Mostly Cloudy
6:54 PM 57.0 °F 54.0 °F 89% 30.17 in 10.0 mi Calm Calm - N/A   Overcast
7:54 PM 55.0 °F 54.0 °F 96% 30.15 in 10.0 mi Calm Calm - N/A   Overcast
8:52 PM 53.6 °F 53.6 °F 100% 30.15 in 8.0 mi Calm Calm - N/A Fog Patches of Fog
8:54 PM 54.0 °F 53.1 °F 97% 30.15 in 6.0 mi NNW 3.5 mph - N/A Fog Patches of Fog
9:00 PM 53.6 °F 53.6 °F 100% 30.15 in 2.0 mi NW 5.8 mph - N/A   Overcast
9:03 PM 53.6 °F 53.6 °F 100% 30.15 in 1.0 mi NW 5.8 mph - N/A   Overcast
9:08 PM 53.6 °F 53.6 °F 100% 30.15 in 0.2 mi NW 4.6 mph - N/A Fog Fog
9:25 PM 53.6 °F 53.6 °F 100% 30.15 in 0.2 mi NW 3.5 mph - N/A Fog Fog
9:54 PM 54.0 °F 54.0 °F 100% 30.16 in 0.2 mi Calm Calm - N/A Fog Fog
10:28 PM 53.6 °F 53.6 °F 100% 30.13 in 0.5 mi ESE 4.6 mph - N/A Fog Fog
10:37 PM 53.6 °F 53.6 °F 100% 30.13 in 0.5 mi SE 3.5 mph - N/A Fog Fog
10:54 PM 54.0 °F 53.1 °F 97% 30.12 in 0.5 mi Calm Calm - N/A Fog Fog
11:36 PM 53.6 °F 53.6 °F 100% 30.12 in 1.0 mi South 4.6 mph - N/A   Overcast
11:41 PM 53.6 °F 53.6 °F 100% 30.12 in 2.0 mi South 3.5 mph - N/A   Overcast
11:54 PM 54.0 °F 53.1 °F 97% 30.12 in 2.5 mi South 4.6 mph - N/A   Overcast